Dyersburg, TN

10:56 AM CST on December 07, 2019 (GMT -0600)
Dyersburg Municipal

Weather History for KDYR - October, 2019

Change the Weather History Date:

Sunday, October 13, 2019

  Actual Average Record
Temperature  
Mean Temperature 52 °F -  
Max Temperature 66 °F 69 °F 84 °F (1999)
Min Temperature 37 °F 48 °F 33 °F (2006)
Degree Days  
Heating Degree Days 14    
Growing Degree Days 2 (Base 50)    
Moisture  
Dew Point 41 °F    
Average Humidity 74    
Maximum Humidity 100    
Minimum Humidity 34    
Precipitation  
Precipitation 0.00 in - - ()
Sea Level Pressure  
Sea Level Pressure 30.08 in    
Wind  
Wind Speed 2 mph ()    
Max Wind Speed 10 mph    
Max Gust Speed -    
Visibility 10.0 miles    
Events      
Averages and records for this station are not official NWS values.
T = Trace of Precipitation, MM = Missing Value Source: Averaged Metar Reports

Daily Weather History Graph

Daily Weather History Graph

Search for Another Location

Airport or City:

Astronomy

Oct. 13, 2019 Rise Set
Actual Time 7:02 AM CDT 6:24 PM CDT
Civil Twilight 6:36 AM CDT 6:50 PM CDT
Nautical Twilight 6:07 AM CDT 7:20 PM CDT
Astronomical Twilight 5:37 AM CDT 7:49 PM CDT
Moon 6:45 PM CDT (10/13) 6:39 AM CDT (10/13)
Length of Visible Light 12h 13m
Length of Day
11h 22m
Full, 100% of the Moon is Illuminated
Oct 13
Full
Oct 13
Full
Oct 21
Last Quarter
Oct 27
New
Nov 4
First Quarter

Hourly Weather History & Observations

Time (CDT) Temp. Windchill Dew Point Humidity Pressure Visibility Wind Dir Wind Speed Gust Speed Precip Events Conditions
12:56 AM 41.0 °F - 39.9 °F 96% 30.09 in 10.0 mi Calm Calm - N/A   Clear
1:56 AM 39.0 °F - 39.0 °F 100% 30.09 in 10.0 mi Calm Calm - N/A   Clear
2:56 AM 39.0 °F - 37.9 °F 96% 30.09 in 10.0 mi Calm Calm - N/A   Clear
3:56 AM 39.0 °F - 39.0 °F 100% 30.08 in 10.0 mi Calm Calm - N/A   Clear
4:56 AM 37.9 °F - 37.9 °F 100% 30.09 in 10.0 mi Calm Calm - N/A   Clear
5:56 AM 37.9 °F - 37.9 °F 100% 30.09 in 10.0 mi Calm Calm - N/A   Clear
6:56 AM 37.9 °F - 37.0 °F 97% 30.11 in 10.0 mi Calm Calm - N/A   Clear
7:56 AM 42.1 °F 40.2 °F 39.9 °F 92% 30.11 in 10.0 mi South 3.5 mph - N/A   Clear
8:56 AM 48.9 °F - 43.0 °F 80% 30.12 in 10.0 mi Calm Calm - N/A   Clear
9:56 AM 55.0 °F - 45.0 °F 69% 30.12 in 10.0 mi WSW 4.6 mph - N/A   Clear
10:56 AM 60.1 °F - 39.9 °F 47% 30.12 in 10.0 mi West 8.1 mph - N/A   Clear
11:56 AM 63.0 °F - 37.9 °F 40% 30.11 in 10.0 mi SW 8.1 mph - N/A   Clear
12:56 PM 64.0 °F - 42.1 °F 45% 30.09 in 10.0 mi West 8.1 mph - N/A   Clear
1:56 PM 64.9 °F - 39.0 °F 39% 30.07 in 10.0 mi West 10.4 mph - N/A   Clear
2:56 PM 66.9 °F - 37.9 °F 34% 30.05 in 10.0 mi SW 5.8 mph - N/A   Clear
3:56 PM 66.9 °F - 37.9 °F 34% 30.04 in 10.0 mi WSW 10.4 mph - N/A   Clear
4:56 PM 66.0 °F - 37.9 °F 36% 30.04 in 10.0 mi WSW 10.4 mph - N/A   Clear
5:56 PM 62.1 °F - 43.0 °F 50% 30.04 in 10.0 mi WSW 4.6 mph - N/A   Clear
6:56 PM 55.0 °F - 45.0 °F 69% 30.04 in 9.0 mi Calm Calm - N/A   Clear
7:56 PM 52.0 °F - 46.0 °F 80% 30.06 in 10.0 mi Calm Calm - N/A   Clear
8:56 PM 48.9 °F - 46.0 °F 90% 30.06 in 10.0 mi Calm Calm - N/A   Clear
9:56 PM 46.9 °F - 45.0 °F 93% 30.08 in 10.0 mi Calm Calm - N/A   Clear
10:56 PM 46.0 °F - 44.1 °F 93% 30.09 in 10.0 mi Calm Calm - N/A   Clear
11:56 PM 45.0 °F - 44.1 °F 97% 30.10 in 10.0 mi Calm Calm - N/A   Clear